Location: Willingham
(52.3167°N, 0.0667°E)
Time: 16:37:58
(UTC+00:00)

Meteor 2-2 Rocket - Pass Details

Date: 19 May 2025
Orbit: 852 x 927 km, 81.3° (Epoch: 12 June)

Event Time Altitude Azimuth Distance (km) Brightness Sun altitude
Rises 20:57:35 0° 180° (S) 3,509 7.0 -8.0°
Reaches altitude 10° 21:00:01 10° 177° (S) 2,583 6.3 -8.2°
Maximum altitude 21:05:51 64° 97° (E) 1,012 4.4 -8.8°
Drops below altitude 10° 21:11:48 10° 18° (NNE) 2,637 7.3 -9.4°
Sets 21:14:19 0° 15° (NNE) 3,588 8.0 -9.6°
